User: anonymous   Login
Location: Antichan
(42.9728°N, 0.6667°E)
Time: 06:56:36
(UTC+00:00)
Language:

MONITOR-E - Orbit

View from above orbital plane
View from above orbital plane
View from above satellite
View from above satellite

Ground track
Ground track

The orbit data is extracted from the following two-line orbital elements,

1 28822U 05032A   20265.89139947  .18475861  23487-5  27597-3 0  9999
2 28822  96.9804 311.7372 0008049 264.5995 176.6865 16.48415109842973
Epoch (UTC): 21 September 2020 21:23:36
Eccentricity: 0.0008049
inclination: 96.9804°
perigee height: 138 km
apogee height: 149 km
right ascension of ascending node: 311.7372°
argument of perigee: 264.5995°
revolutions per day: 16.48415109
mean anomaly at epoch: 176.6865°
orbit number at epoch: 84297

The dashed part of the orbit path shows where the satellite is in the earth's shadow,  

DLR